Terminal Aerodrome Forecast
Issued by NWS Spokane, WA

Home | Current Version | Previous Version | Text Only | Print | Product List | Glossary On
Versions: 1 2 3 4 5 6 7 8 9 10 11 12
000
FTUS46 KOTX 232333
TAFLWS
TAF
KLWS 232333Z 2400/2424 29006KT P6SM SKC
     FM240500 VRB04KT P6SM SKC
     FM241900 31005KT P6SM SKC=

USA.gov is the U.S. government's official web portal to all federal, state and local government web resources and services.